Year,Month,Day,Hour,Minute,Value (Times are PST for temperature in C)
2018,06,18,09,03,22.20
2018,06,18,09,04,22.30
2018,06,18,09,05,22.40
2018,06,18,09,06,22.50
2018,06,18,09,07,22.50
2018,06,18,09,08,22.60
2018,06,18,09,09,22.60
2018,06,18,09,10,22.60
2018,06,18,09,11,22.60
2018,06,18,09,12,22.70
2018,06,18,09,13,22.70
2018,06,18,09,14,22.70
2018,06,18,09,15,22.70
2018,06,18,09,16,22.60
2018,06,18,09,17,22.50
2018,06,18,09,18,22.50
2018,06,18,09,19,22.40
2018,06,18,09,20,22.30
2018,06,18,09,21,22.30
2018,06,18,09,22,22.40
2018,06,18,09,23,22.40
2018,06,18,09,24,22.40
2018,06,18,09,25,22.40
2018,06,18,09,26,22.40
2018,06,18,09,27,22.50
2018,06,18,09,28,22.50
2018,06,18,09,29,22.50
2018,06,18,09,30,22.60
2018,06,18,09,31,22.60
2018,06,18,09,32,22.60
2018,06,18,09,33,22.70
2018,06,18,09,34,22.80
2018,06,18,09,35,22.80
2018,06,18,09,36,22.90
2018,06,18,09,37,22.90
2018,06,18,09,38,23.00
2018,06,18,09,39,23.10
2018,06,18,09,40,23.20
2018,06,18,09,41,23.30
2018,06,18,09,42,23.30
2018,06,18,09,43,23.40
2018,06,18,09,44,23.50
2018,06,18,09,45,23.60
2018,06,18,09,46,23.70
2018,06,18,09,47,23.70
2018,06,18,09,48,23.70
2018,06,18,09,49,23.70
2018,06,18,09,50,23.60
2018,06,18,09,51,23.50
2018,06,18,09,52,23.40
2018,06,18,09,53,23.30
2018,06,18,09,54,23.30
2018,06,18,09,55,23.20
2018,06,18,09,56,23.20
2018,06,18,09,57,23.10
2018,06,18,09,58,23.10
2018,06,18,09,59,23.20
2018,06,18,10,00,23.20
2018,06,18,10,01,23.20
2018,06,18,10,02,23.20
2018,06,18,10,03,23.30
2018,06,18,10,04,23.30
2018,06,18,10,05,23.40
2018,06,18,10,06,23.30
2018,06,18,10,07,23.30
2018,06,18,10,08,23.30
2018,06,18,10,09,23.30
2018,06,18,10,10,23.30
2018,06,18,10,11,23.30
2018,06,18,10,12,23.40
2018,06,18,10,13,23.50
2018,06,18,10,14,23.60
2018,06,18,10,15,23.60
2018,06,18,10,16,23.60
2018,06,18,10,17,23.70
2018,06,18,10,18,23.70
2018,06,18,10,19,23.70
2018,06,18,10,20,23.70
2018,06,18,10,21,23.70
2018,06,18,10,22,23.70
2018,06,18,10,23,23.70
2018,06,18,10,24,23.60
2018,06,18,10,25,23.60
2018,06,18,10,26,23.50
2018,06,18,10,27,23.40
2018,06,18,10,28,23.30
2018,06,18,10,29,23.20
2018,06,18,10,30,23.20
2018,06,18,10,31,23.10
2018,06,18,10,32,23.10
2018,06,18,10,33,23.20
2018,06,18,10,34,23.30
2018,06,18,10,35,23.30
2018,06,18,10,36,23.40
2018,06,18,10,37,23.50
2018,06,18,10,38,23.60
2018,06,18,10,39,23.70
2018,06,18,10,40,23.90
2018,06,18,10,41,24.00
2018,06,18,10,42,24.10
2018,06,18,10,43,24.10
2018,06,18,10,44,24.20
2018,06,18,10,45,24.30
2018,06,18,10,46,24.40
2018,06,18,10,47,24.50
2018,06,18,10,48,24.70
2018,06,18,10,49,24.80
2018,06,18,10,50,25.00
2018,06,18,10,51,25.10
2018,06,18,10,52,25.30
2018,06,18,10,53,25.50
2018,06,18,10,54,25.60
2018,06,18,10,55,25.80
2018,06,18,10,56,25.90
2018,06,18,10,57,26.00
2018,06,18,10,58,26.00
2018,06,18,10,59,26.00
2018,06,18,11,00,25.90
2018,06,18,11,01,25.70
2018,06,18,11,02,25.60
2018,06,18,11,03,25.50
2018,06,18,11,04,25.50
2018,06,18,11,05,25.40
2018,06,18,11,06,25.40
2018,06,18,11,07,25.40
2018,06,18,11,08,25.30
2018,06,18,11,09,25.30
2018,06,18,11,10,25.20
2018,06,18,11,11,25.20
2018,06,18,11,12,25.20
2018,06,18,11,13,25.10
2018,06,18,11,14,25.10
2018,06,18,11,15,25.10
2018,06,18,11,16,25.20
2018,06,18,11,17,25.30
2018,06,18,11,18,25.30
2018,06,18,11,19,25.30
2018,06,18,11,20,25.40
2018,06,18,11,21,25.50
2018,06,18,11,22,25.50
2018,06,18,11,23,25.50
2018,06,18,11,24,25.50
2018,06,18,11,25,25.60
2018,06,18,11,26,25.60
2018,06,18,11,27,25.60
2018,06,18,11,28,25.70
2018,06,18,11,29,25.80
2018,06,18,11,30,25.80
2018,06,18,11,31,25.90
2018,06,18,11,32,26.00
2018,06,18,11,33,26.10
2018,06,18,11,34,26.10
2018,06,18,11,35,26.20
2018,06,18,11,36,26.20
2018,06,18,11,37,26.20
2018,06,18,11,38,26.20
2018,06,18,11,39,26.20
2018,06,18,11,40,26.10
2018,06,18,11,41,26.10
2018,06,18,11,42,26.10
2018,06,18,11,43,26.20
2018,06,18,11,44,26.30
2018,06,18,11,45,26.40
2018,06,18,11,46,26.50
2018,06,18,11,47,26.50
2018,06,18,11,48,26.40
2018,06,18,11,49,26.30
2018,06,18,11,50,26.30
2018,06,18,11,51,26.30
2018,06,18,11,52,26.30
2018,06,18,11,53,26.30
2018,06,18,11,54,26.20
2018,06,18,11,55,26.10
2018,06,18,11,56,26.00
2018,06,18,11,57,25.90
2018,06,18,11,58,25.80
2018,06,18,11,59,25.80
2018,06,18,12,00,25.80
2018,06,18,12,01,25.90
2018,06,18,12,02,25.90
2018,06,18,12,03,25.80
2018,06,18,12,04,25.80
2018,06,18,12,05,25.80
2018,06,18,12,06,25.80
2018,06,18,12,07,25.80
2018,06,18,12,08,25.80
2018,06,18,12,09,25.90
2018,06,18,12,10,25.90
2018,06,18,12,11,26.00
2018,06,18,12,12,26.00
2018,06,18,12,13,26.10
2018,06,18,12,14,26.20
2018,06,18,12,15,26.30
2018,06,18,12,16,26.20
2018,06,18,12,17,26.20
2018,06,18,12,18,26.20
2018,06,18,12,19,26.30
2018,06,18,12,20,26.30
2018,06,18,12,21,26.20
2018,06,18,12,22,26.10
2018,06,18,12,23,26.10
2018,06,18,12,24,26.10
2018,06,18,12,25,26.10
2018,06,18,12,26,26.00
2018,06,18,12,27,26.00
2018,06,18,12,28,26.10
2018,06,18,12,29,26.10
2018,06,18,12,30,26.20
2018,06,18,12,31,26.30
2018,06,18,12,32,26.40
2018,06,18,12,33,26.50
2018,06,18,12,34,26.70
2018,06,18,12,35,26.80
2018,06,18,12,36,26.80
2018,06,18,12,37,26.80
2018,06,18,12,38,26.80
2018,06,18,12,39,26.80
2018,06,18,12,40,26.70
2018,06,18,12,41,26.60
2018,06,18,12,42,26.60
2018,06,18,12,43,26.60
2018,06,18,12,44,26.60
2018,06,18,12,45,26.70
2018,06,18,12,46,26.70
2018,06,18,12,47,26.80
2018,06,18,12,48,27.00
2018,06,18,12,49,27.20
2018,06,18,12,50,27.30
2018,06,18,12,51,27.30
2018,06,18,12,52,27.20
2018,06,18,12,53,27.10
2018,06,18,12,54,27.00
2018,06,18,12,55,27.00
2018,06,18,12,56,27.00
2018,06,18,12,57,27.00
2018,06,18,12,58,26.90
2018,06,18,12,59,26.90
2018,06,18,13,00,26.90
2018,06,18,13,01,26.90
2018,06,18,13,02,26.90
2018,06,18,13,03,26.90
2018,06,18,13,04,27.00
2018,06,18,13,05,27.10
2018,06,18,13,06,27.20
2018,06,18,13,07,27.30
2018,06,18,13,08,27.40
2018,06,18,13,09,27.50
2018,06,18,13,10,27.70
2018,06,18,13,11,27.80
2018,06,18,13,12,27.90
2018,06,18,13,13,27.90
2018,06,18,13,14,27.90
2018,06,18,13,15,27.90
2018,06,18,13,16,28.00
2018,06,18,13,17,28.00
2018,06,18,13,18,27.90
2018,06,18,13,19,28.00
2018,06,18,13,20,28.00
2018,06,18,13,21,28.00
2018,06,18,13,22,28.10
2018,06,18,13,23,28.10
2018,06,18,13,24,28.10
2018,06,18,13,25,28.10
2018,06,18,13,26,28.10
2018,06,18,13,27,28.10
2018,06,18,13,28,28.10
2018,06,18,13,29,28.20
2018,06,18,13,30,28.30
2018,06,18,13,31,28.40
2018,06,18,13,32,28.40
2018,06,18,13,33,28.40
2018,06,18,13,34,28.30
2018,06,18,13,35,28.30
2018,06,18,13,36,28.20
2018,06,18,13,37,28.20
2018,06,18,13,38,28.20
2018,06,18,13,39,28.20
2018,06,18,13,40,28.20
2018,06,18,13,41,28.30
2018,06,18,13,42,28.30
2018,06,18,13,43,28.40
2018,06,18,13,44,28.40
2018,06,18,13,45,28.50
2018,06,18,13,46,28.60
2018,06,18,13,47,28.60
2018,06,18,13,48,28.60
2018,06,18,13,49,28.70
2018,06,18,13,50,28.70
2018,06,18,13,51,28.80
2018,06,18,13,52,28.90
2018,06,18,13,53,29.10
2018,06,18,13,54,29.10
2018,06,18,13,55,29.00
2018,06,18,13,56,28.90
2018,06,18,13,57,28.80
2018,06,18,13,58,28.70
2018,06,18,13,59,28.60
2018,06,18,14,00,28.60
2018,06,18,14,01,28.70
2018,06,18,14,02,28.80
2018,06,18,14,03,28.90
2018,06,18,14,04,29.10
2018,06,18,14,05,29.30
2018,06,18,14,06,29.40
2018,06,18,14,07,29.50
2018,06,18,14,08,29.60
2018,06,18,14,09,29.60
2018,06,18,14,10,29.60
2018,06,18,14,11,29.50
2018,06,18,14,12,29.40
2018,06,18,14,13,29.30
2018,06,18,14,14,29.30
2018,06,18,14,15,29.30
2018,06,18,14,16,29.30
2018,06,18,14,17,29.20
2018,06,18,14,18,29.20
2018,06,18,14,19,29.30
2018,06,18,14,20,29.40
2018,06,18,14,21,29.40
2018,06,18,14,22,29.50
2018,06,18,14,23,29.40
2018,06,18,14,24,29.30
2018,06,18,14,25,29.30
2018,06,18,14,26,29.20
2018,06,18,14,27,29.20
2018,06,18,14,28,29.20
2018,06,18,14,29,29.30
2018,06,18,14,30,29.30
2018,06,18,14,31,29.30
2018,06,18,14,32,29.30
2018,06,18,14,33,29.30
2018,06,18,14,34,29.30
2018,06,18,14,35,29.30
2018,06,18,14,36,29.30
2018,06,18,14,37,29.30
2018,06,18,14,38,29.40
2018,06,18,14,39,29.40
2018,06,18,14,40,29.30
2018,06,18,14,41,29.20
2018,06,18,14,42,29.10
2018,06,18,14,43,29.10
2018,06,18,14,44,29.10
2018,06,18,14,45,29.10
2018,06,18,14,46,29.10
2018,06,18,14,47,29.20
2018,06,18,14,48,29.20
2018,06,18,14,49,29.20
2018,06,18,14,50,29.20
2018,06,18,14,51,29.30
2018,06,18,14,52,29.40
2018,06,18,14,53,29.40
2018,06,18,14,54,29.50
2018,06,18,14,55,29.50
2018,06,18,14,56,29.50
2018,06,18,14,57,29.50
2018,06,18,14,58,29.40
2018,06,18,14,59,29.40
2018,06,18,15,00,29.50
2018,06,18,15,01,29.50
2018,06,18,15,02,29.50
2018,06,18,15,03,29.50
2018,06,18,15,04,29.60
2018,06,18,15,05,29.70
2018,06,18,15,06,29.80
2018,06,18,15,07,30.00
2018,06,18,15,08,30.10
2018,06,18,15,09,30.20
2018,06,18,15,10,30.30
2018,06,18,15,11,30.30
2018,06,18,15,12,30.30
2018,06,18,15,13,30.30
2018,06,18,15,14,30.30
2018,06,18,15,15,30.30
2018,06,18,15,16,30.20
2018,06,18,15,17,30.10
2018,06,18,15,18,30.10
2018,06,18,15,19,30.10
2018,06,18,15,20,30.20
2018,06,18,15,21,30.20
2018,06,18,15,22,30.30
2018,06,18,15,23,30.30
2018,06,18,15,24,30.30
2018,06,18,15,25,30.30
2018,06,18,15,26,30.30
2018,06,18,15,27,30.50
2018,06,18,15,28,30.50
2018,06,18,15,29,30.70
2018,06,18,15,30,30.80
2018,06,18,15,31,30.90
2018,06,18,15,32,31.00
2018,06,18,15,33,31.00
2018,06,18,15,34,31.10
2018,06,18,15,35,31.10
2018,06,18,15,36,31.20
2018,06,18,15,37,31.30
2018,06,18,15,38,31.30
2018,06,18,15,39,31.30
2018,06,18,15,40,31.30
2018,06,18,15,41,31.30
2018,06,18,15,42,31.30
2018,06,18,15,43,31.30
2018,06,18,15,44,31.30
2018,06,18,15,45,31.20
2018,06,18,15,46,31.10
2018,06,18,15,47,31.00
2018,06,18,15,48,30.80
2018,06,18,15,49,30.60
2018,06,18,15,50,30.50
2018,06,18,15,51,30.40
2018,06,18,15,52,30.40
2018,06,18,15,53,30.40
2018,06,18,15,54,30.40
2018,06,18,15,55,30.30
2018,06,18,15,56,30.30
2018,06,18,15,57,30.30
2018,06,18,15,58,30.30
2018,06,18,15,59,30.30
2018,06,18,16,00,30.30
2018,06,18,16,01,30.30
2018,06,18,16,02,30.50
2018,06,18,16,03,30.50
2018,06,18,16,04,30.60
2018,06,18,16,05,30.70
2018,06,18,16,06,30.80
2018,06,18,16,07,30.80
2018,06,18,16,08,30.80
2018,06,18,16,09,30.90
2018,06,18,16,10,31.00
2018,06,18,16,11,31.10
2018,06,18,16,12,31.10
2018,06,18,16,13,31.20
2018,06,18,16,14,31.20
2018,06,18,16,15,31.20
2018,06,18,16,16,31.20
2018,06,18,16,17,31.30
2018,06,18,16,18,31.40
2018,06,18,16,19,31.50
2018,06,18,16,20,31.50
2018,06,18,16,21,31.60
2018,06,18,16,22,31.60
2018,06,18,16,23,31.60
2018,06,18,16,24,31.50
2018,06,18,16,25,31.40
2018,06,18,16,26,31.40
2018,06,18,16,27,31.30
2018,06,18,16,28,31.30
2018,06,18,16,29,31.30
2018,06,18,16,30,31.30
2018,06,18,16,31,31.40
2018,06,18,16,32,31.40
2018,06,18,16,33,31.50
2018,06,18,16,34,31.60
2018,06,18,16,35,31.70
2018,06,18,16,36,31.80
2018,06,18,16,37,31.90
2018,06,18,16,38,32.00
2018,06,18,16,39,32.10
2018,06,18,16,40,32.10
2018,06,18,16,41,32.20
2018,06,18,16,42,32.20
2018,06,18,16,43,32.20
2018,06,18,16,44,32.20
2018,06,18,16,45,32.20
2018,06,18,16,46,32.20
2018,06,18,16,47,32.10
2018,06,18,16,48,32.00
2018,06,18,16,49,31.90
2018,06,18,16,50,31.80
2018,06,18,16,51,31.80
2018,06,18,16,52,31.80
2018,06,18,16,53,31.90
2018,06,18,16,54,31.90
2018,06,18,16,55,31.80
2018,06,18,16,56,31.80
2018,06,18,16,57,31.80
2018,06,18,16,58,31.80
2018,06,18,16,59,31.80
2018,06,18,17,00,31.80
2018,06,18,17,01,31.90
2018,06,18,17,02,31.90
2018,06,18,17,03,32.00
2018,06,18,17,04,32.10
2018,06,18,17,05,32.10
2018,06,18,17,06,32.00
2018,06,18,17,07,32.00
2018,06,18,17,08,31.90
2018,06,18,17,09,31.70
2018,06,18,17,10,31.70
2018,06,18,17,11,31.70
2018,06,18,17,12,31.80
2018,06,18,17,13,31.80
2018,06,18,17,14,31.80
2018,06,18,17,15,31.80
2018,06,18,17,16,31.90
2018,06,18,17,17,32.00
2018,06,18,17,18,32.10
2018,06,18,17,19,32.10
2018,06,18,17,20,32.20
2018,06,18,17,21,32.20
2018,06,18,17,22,32.30
2018,06,18,17,23,32.40
2018,06,18,17,24,32.40
2018,06,18,17,25,32.50
2018,06,18,17,26,32.60
2018,06,18,17,27,32.60
2018,06,18,17,28,32.70
2018,06,18,17,29,32.80
2018,06,18,17,30,32.90
2018,06,18,17,31,33.00
2018,06,18,17,32,33.10
2018,06,18,17,33,33.10
2018,06,18,17,34,33.10
2018,06,18,17,35,33.00
2018,06,18,17,36,33.00
2018,06,18,17,37,32.90
2018,06,18,17,38,32.90
2018,06,18,17,39,32.90
2018,06,18,17,40,32.90
2018,06,18,17,41,32.90
2018,06,18,17,42,32.90
2018,06,18,17,43,32.80
2018,06,18,17,44,32.80
2018,06,18,17,45,32.80
2018,06,18,17,46,32.70
2018,06,18,17,47,32.60
2018,06,18,17,48,32.60
2018,06,18,17,49,32.60
2018,06,18,17,50,32.50
2018,06,18,17,51,32.50
2018,06,18,17,52,32.40
2018,06,18,17,53,32.40
2018,06,18,17,54,32.40
2018,06,18,17,55,32.40
2018,06,18,17,56,32.40
2018,06,18,17,57,32.40
2018,06,18,17,58,32.40
2018,06,18,17,59,32.50
2018,06,18,18,00,32.50
2018,06,18,18,01,32.60
2018,06,18,18,02,32.70
2018,06,18,18,03,32.70
2018,06,18,18,04,32.70
2018,06,18,18,05,32.60
2018,06,18,18,06,32.60
2018,06,18,18,07,32.50
2018,06,18,18,08,32.40
2018,06,18,18,09,32.30
2018,06,18,18,10,32.20
2018,06,18,18,11,32.20
2018,06,18,18,12,32.10
2018,06,18,18,13,32.00
2018,06,18,18,14,31.90
2018,06,18,18,15,31.90
2018,06,18,18,16,31.90
2018,06,18,18,17,31.90
2018,06,18,18,18,31.90
2018,06,18,18,19,31.90
2018,06,18,18,20,31.80
2018,06,18,18,21,31.80
2018,06,18,18,22,31.80
2018,06,18,18,23,31.70
2018,06,18,18,24,31.70
2018,06,18,18,25,31.70
2018,06,18,18,26,31.70
2018,06,18,18,27,31.70
2018,06,18,18,28,31.70
2018,06,18,18,29,31.80
2018,06,18,18,30,31.90
2018,06,18,18,31,32.10
2018,06,18,18,32,32.30
2018,06,18,18,33,32.40
2018,06,18,18,34,32.60
2018,06,18,18,35,32.80
2018,06,18,18,36,33.00
2018,06,18,18,37,33.20
2018,06,18,18,38,33.40
2018,06,18,18,39,33.60
2018,06,18,18,40,33.70
2018,06,18,18,41,33.90
2018,06,18,18,42,34.10
2018,06,18,18,43,34.20
2018,06,18,18,44,34.30
2018,06,18,18,45,34.40
2018,06,18,18,46,34.50
2018,06,18,18,47,34.60
2018,06,18,18,48,34.60
2018,06,18,18,49,34.70
2018,06,18,18,50,34.70
2018,06,18,18,51,34.70
2018,06,18,18,52,34.60
2018,06,18,18,53,34.50
2018,06,18,18,54,34.30
2018,06,18,18,55,34.10
2018,06,18,18,56,33.90
2018,06,18,18,57,33.70
2018,06,18,18,58,33.50
2018,06,18,18,59,33.30
2018,06,18,19,00,33.10
2018,06,18,19,01,33.00
2018,06,18,19,02,32.90
2018,06,18,19,03,32.70
2018,06,18,19,04,32.60
2018,06,18,19,05,32.50
2018,06,18,19,06,32.30
2018,06,18,19,07,32.20
2018,06,18,19,08,32.20
2018,06,18,19,09,32.10
2018,06,18,19,10,32.00
2018,06,18,19,11,31.90
2018,06,18,19,12,31.90
2018,06,18,19,13,31.80
2018,06,18,19,14,31.80
2018,06,18,19,15,31.70
2018,06,18,19,16,31.70
2018,06,18,19,17,31.60
2018,06,18,19,18,31.60
2018,06,18,19,19,31.50
2018,06,18,19,20,31.50
2018,06,18,19,21,31.50
2018,06,18,19,22,31.40
2018,06,18,19,23,31.30
2018,06,18,19,24,31.30
2018,06,18,19,25,31.20
2018,06,18,19,26,31.20
2018,06,18,19,27,31.10
2018,06,18,19,28,31.00
2018,06,18,19,29,31.00
2018,06,18,19,30,30.90
2018,06,18,19,31,30.90
2018,06,18,19,32,30.80
2018,06,18,19,33,30.80
2018,06,18,19,34,30.70
2018,06,18,19,35,30.60
2018,06,18,19,36,30.50
2018,06,18,19,37,30.50
2018,06,18,19,38,30.40
2018,06,18,19,39,30.40
2018,06,18,19,40,30.40
2018,06,18,19,41,30.30
2018,06,18,19,42,30.30
2018,06,18,19,43,30.20
2018,06,18,19,44,30.10
2018,06,18,19,45,30.00
2018,06,18,19,46,30.00
2018,06,18,19,47,30.00
2018,06,18,19,48,30.00
2018,06,18,19,49,30.00
2018,06,18,19,50,30.00
2018,06,18,19,51,30.00
2018,06,18,19,52,30.00
2018,06,18,19,53,30.00
2018,06,18,19,54,30.00
2018,06,18,19,55,30.00
